STARLINK-30255, 57606

Orbit data source: Space-Track

STARLINK-30255, 57606 is a payload satellite owned by SpaceX/Seattle (US) in LEO that was launched on Fri, 11 Aug 2023 UTC via an FALCON 9 launch vehicle from the Air Force Eastern Test Range (AFETR). Payload-class satellites include a variety of spacecraft equipped with specific instruments for various scientific and technological missions. These include communications satellites like Starlink; space stations such as the ISS; scientific satellites like the Hubble; Earth observation satellites from companies like Planet Labs, Umbra, and HawkEye 360; GPS; miniature CubeSats for education and research; and military/defense satellites.

Loading next visibility...
Identifier
57606, 2023-119E
Orbit
LEO
Country
Flag of USUS
Related business
Manufacturer
SpaceX/Seattle
Mission
Operational Commercial Communications
Bus & Motor
STARLINK V2M, Unknown motor
Mass
730 kg wet, ~700 kg dry
Launch date (UTC)
2023-08-11 (3 years ago)
Launch vehicle
FALCON 9
Launch site
Air Force Eastern Test Range (AFETR)
Object type
Payload
Rocket body
Debris
Shape & HBR
Box + 2 Pan, 17.7 m
Radar Cross Section
33.884 m², Large (>1 m²)

Expand to show TLE details & history
Last TLE update: 11 hours ago

TLE from 11 hours ago
0 STARLINK-30255
1 57606U 23119E   26094.94160880  .00000149  00000-0  15227-4 0  9992
2 57606  43.0052 293.1208 0001465 270.7819  89.2864 15.26744041147109
Epoch: 2026-04-04T22:35Z
TLE epoch observation values (Epoch: 2026-04-04T22:35:55.000Z)
Latitude
-0.00005°
Longitude
120.88742°
Altitude
485.317 km
Speed
7.624 km/s
True Right ascension
19h 32m 28s
True Declination
0° 00' 00"
Sunlit
Object was in daylight at epoch
Visualization orbit readout
Latitude
Unknown
Longitude
Unknown
Altitude
Unknown
Speed
Unknown
Apparent Right ascension
Unknown
Apparent Declination
Unknown
Sunlit
N/A
Visualization observer readout
Local Sidereal Time
15:27:45
Azimuth
Unknown
Elevation
Unknown
Doppler factor
Unknown
Orbital elements
Apogee altitude
488.503 km
Perigee altitude
486.491 km
Semi-major axis
6,865.634 km
Eccentricity
0.00015
Inclination
43.0052°
RAAN
293.1208°
Arg. of periapsis
270.7819°
True anomaly
89.30319°
Mean anomaly
89.2864°
Eccentric anomaly
89.29479°
Mean motion
3.81524 °/min
Orbital period
94.36 mins
BSTAR
0.000015227
Loading maneuver chart data...
Computing Atmospheric mass density...
Loading historical data...
Loading historical data...
Loading historical data...
Loading historical data...
Loading historical data...
Loading historical data...
Loading historical data...

Documentation

Showing up to 5 results
|